Regional Weather Roundup
Issued by NWS

Home | Current Version | Previous Version | Graphics & Text | Print | Product List | Glossary On
Versions: 1 2 3 4 5 6 7 8 9 10 11 12 13 14 15 16 17 18 19 20 21 22 23 24 25 26 27 28 29 30 31 32 33 34 35 36 37 38 39 40 41 42 43 44 45 46 47 48 49 50
000
ASUS44 KMEG 250200
RWRTN
TENNESSEE HOURLY STATE WEATHER ROUNDUP
NATIONAL WEATHER SERVICE MEMPHIS TN
900 PM CDT WED AUG 24 2016

TNZ002-004-019-021-049-052-054-088>092-250300-
WEST TENNESSEE

CITY           SKY/WX    TMP DP  RH WIND       PRES   REMARKS
MEMPHIS INTL   PTCLDY    84  74  71 SW5       30.11R HX  91
NWS MEMPHIS      N/A     81 N/A N/A MISG        N/A
JACKSON        CLEAR     79  77  94 CALM      30.10S
DYERSBURG      CLEAR    N/A N/A N/A MISG        N/A
UNION CITY     CLEAR     81  75  83 CALM      30.08R
PARIS          CLEAR     75  72  88 CALM      30.12R
LEXINGTON      CLEAR     79  77  94 CALM      30.12R
$$

TNZ008-025-027-028-033-062-065-066-250300-
NORTH MIDDLE TENNESSEE

CITY           SKY/WX    TMP DP  RH WIND       PRES   REMARKS
NASHVILLE      MOCLDY    82  73  74 S3        30.14R
CLARKSVILLE    CLEAR     81  74  79 S3        30.12R
SMYRNA         CLEAR     84  73  70 CALM      30.14S HX  91
COOKEVILLE     CLEAR     73  72  94 CALM      30.18R
CROSSVILLE     CLEAR     74  71  91 CALM      30.24R
$$

TNZ061-075-076-078-094-096-097-250300-
SOUTH MIDDLE TENNESSEE

CITY           SKY/WX    TMP DP  RH WIND       PRES   REMARKS
WINCHESTER     CLEAR     75  73  94 CALM      30.18S
COLUMBIA       CLEAR    N/A N/A N/A CALM      30.14R
SHELBYVILLE    CLEAR     79  75  89 E3        30.17R
$$

TNZ017-018-042-046-047-250300-
NORTHEAST TENNESSEE

CITY           SKY/WX    TMP DP  RH WIND       PRES   REMARKS
TRI CITIES     PTCLDY    73  68  84 CALM      30.23R
$$

TNZ012-013-036-069-073-074-250300-
CENTRAL EAST TENNESSEE

CITY           SKY/WX    TMP DP  RH WIND       PRES   REMARKS
KNOXVILLE      PTCLDY    82  70  66 W3        30.19R
GATLINBURG     PTCLDY    75  70  83 CALM      30.19R
$$

TNZ083-085-099-250300-
SOUTHEAST TENNESSEE

CITY           SKY/WX    TMP DP  RH WIND       PRES   REMARKS
CHATTANOOGA    PTCLDY    82  69  64 S5        30.19R
$$

SKY/WX REPORTED AS FAIR MEANS FEW OR NO CLOUDS BELOW
12 THOUSAND FEET.





USA.gov is the U.S. government's official web portal to all federal, state and local government web resources and services.